STARLINK-11547, 62587

Orbit data source: Space-Track

STARLINK-11547, 62587 is a payload satellite owned by SpaceX/Seattle (US) in LEO that was launched on Mon, 13 Jan 2025 UTC via an FALCON 9 launch vehicle from the Air Force Eastern Test Range (AFETR). Payload-class satellites include a variety of spacecraft equipped with specific instruments for various scientific and technological missions. These include communications satellites like Starlink; space stations such as the ISS; scientific satellites like the Hubble; Earth observation satellites from companies like Planet Labs, Umbra, and HawkEye 360; GPS; miniature CubeSats for education and research; and military/defense satellites.

Loading next visibility...
Identifier
62587, 2025-008A
Orbit
LEO
Last TLE update
22 hours ago
Origin
Manufacturer
SpaceX/Seattle
Mission
Operational Commercial Communications
Bus & Motor
STARLINK V2M, Unknown motor
Mass
730 kg wet, ~700 kg dry
Launch date (UTC)
2025-01-13 (4 months ago)
Launch vehicle
FALCON 9
Launch site
Air Force Eastern Test Range (AFETR)
Object type
Payload
Rocket body
Debris
Shape & HBR
Box + 2 Pan, 29 m
Radar Cross Section
36.964 m², Large (>1 m²)

Expand to show TLE details & history

TLE from 22 hours ago
0 STARLINK-11547
1 62587U 25008A   25128.37440739  .00001407  00000-0  14464-4 0  9993
2 62587  42.9981 166.7190 0001523 236.9088 123.1633 15.70833892 18093
Epoch: 2025-05-08T08:59Z
Definitive object data (Epoch: 2025-05-08T08:59:08.798Z)
Latitude
-0.00005°
Longitude
165.48647°
Altitude
356.845 km
Speed
7.697 km/s
True Right ascension
11h 06m 52s
True Declination
0° 00' 00"
Sunlit
Object was in full shadow at TLE epoch
Visualization TLE readout
Latitude
23.60769°
Longitude
-172.14002°
Altitude
357.095 km
Speed
7.698 km/s
Apparent Right ascension
09h 08m 54s
Apparent Declination
-23° 38' 32"
Sunlit
Object is in full shadow
Visualization observer readout
Local Sidereal Time
14:38:54
Azimuth
247.066° WSW
Elevation
-9.534°
Doppler factor
1
Orbital elements
Apogee altitude
359.52 km
Perigee altitude
357.468 km
Semi-major axis
6,736.631 km
Eccentricity
0.0001523
Inclination
42.9981°
RAAN
166.719°
Arg. of periapsis
236.9088°
True anomaly
123.17791°
Mean anomaly
123.1633°
Eccentric anomaly
123.1706°
Mean motion
3.92536 °/min
BSTAR
0.000014464
Orbital period
91.71 mins
Loading maneuver chart data...
Loading SW <> Apogee altitude chart data...
Loading historical data...
Loading historical data...
Loading historical data...
Loading historical data...
Loading historical data...
Loading historical data...
Loading historical data...

STARLINK-11547 Visibility forecast

Observer location: undefined°, undefined°

Span
Click to sort rows by Start time (UTC) header in descending order
Start Az.
Max El. time (UTC)
Max El. Az.
Max El.
End time (UTC)
End Az.
5 mins2025-05-09 06:36:04.030Z243.783° WSW2025-05-09 06:38:04.030Z194.391° SSW43.764°2025-05-09 06:41:04.030Z73.759° E
4 mins2025-05-09 08:13:04.030Z296.824° NW2025-05-09 08:14:04.030Z332.05° NNW33.451°2025-05-09 08:17:04.030Z69.915° E
4 mins2025-05-09 09:49:04.030Z296.141° NW2025-05-09 09:51:04.030Z52.986° ENE40.502°2025-05-09 09:53:04.030Z95.027° ESE
4 mins2025-05-10 05:28:04.030Z210.951° SW2025-05-10 05:30:04.030Z134.688° SE30.116°2025-05-10 05:32:04.030Z86.564° E
|